Terug naar catalogus

CZ-6A DEB

ActiefPO
NORAD 60688·DEBRIS·🇨🇳 China

Gelanceerd Aug 6, 2024 vanaf Taiyuan Satellite Launch Center

Loading…

Volgende Passages (komende 24 uur)

TLE

VersSource: Space-Track

Epoch: Sep 14, 2026, 10:53 UTC

1 60688U 24140CR  26257.45377748  .00000838  00000-0  34465-3 0  9990
2 60688  88.9961 263.9468 0027400 265.8265  93.9796 14.25931179109090

Volg CZ-6A DEB in realtime met AllMySat

Download on the App Store